User: anonymous   Login
Location: Bergnerzell
(49.1816°N, 10.2565°E)
Time: 19:57:01
(UTC+00:00)
Language:

Helios 1A Rocket - Orbit

View from above orbital plane
View from above orbital plane
View from above satellite
View from above satellite

Ground track
Ground track

The orbit data is extracted from the following two-line orbital elements,

1 23608U 95033D   24205.63012991  .00017109  00000-0  98772-3 0  9997
2 23608  98.2570 332.3369 0015128 293.5964  66.3675 15.12318029576021
Epoch (UTC): 23 July 2024 15:07:23
Eccentricity: 0.0015128
inclination: 98.2570°
perigee height: 518 km
apogee height: 539 km
right ascension of ascending node: 332.3369°
argument of perigee: 293.5964°
revolutions per day: 15.12318029
mean anomaly at epoch: 66.3675°
orbit number at epoch: 57602

The dashed part of the orbit path shows where the satellite is in the earth's shadow,  

DLR